GFSCGP_850_rhum_000.txt.gz
RH
11 18 18 16 16 15 14 15 16 14 12 14 16 15 12 9 9 10 11 13 14 14 15 16 20 23 26 30 32 34 33 35 34 35 37 36 38 40 42 42 43 48 50 47
12 20 16 14 13 14 13 15 18 16 14 17 17 16 12 10 12 12 12 15 17 18 19 20 22 25 29 33 34 34 35 35 36 37 36 35 35 37 39 41 43 44 45 47
14 19 14 14 15 18 15 22 23 23 19 15 15 13 12 12 13 14 16 18 18 19 20 21 24 26 30 33 38 37 36 34 33 35 35 34 34 34 36 36 39 45 40 53
16 15 15 16 16 19 22 19 23 25 26 28 18 22 12 12 14 14 15 18 19 21 22 23 24 25 28 31 35 38 38 36 34 33 34 34 33 35 35 31 30 34 41 50
24 18 15 17 20 19 24 22 26 23 26 25 20 20 14 12 13 14 15 17 20 22 23 25 25 26 28 29 31 36 38 38 38 36 34 34 35 34 34 35 34 34 39 41
13 15 16 18 18 19 21 24 23 21 26 46 24 25 21 15 14 13 14 16 20 22 25 27 28 28 28 30 30 33 39 40 41 40 38 35 35 37 38 39 39 38 42 44
19 18 17 21 24 20 25 31 54 70 62 54 22 26 24 17 13 14 16 18 21 24 26 30 31 31 32 33 33 34 36 39 41 44 44 41 37 38 39 40 44 42 45 47
32 37 22 22 26 32 30 33 60 69 60 54 30 31 18 12 13 14 17 20 22 24 27 28 31 34 36 37 38 39 38 36 38 39 41 41 41 38 43 47 51 51 48 48
44 34 22 24 24 28 31 41 32 50 85 68 45 28 19 15 14 17 19 20 25 26 28 31 32 35 37 40 42 44 45 43 43 42 42 42 39 43 45 52 53 50 47 48
35 52 31 26 27 27 31 29 50 61 88 65 38 38 32 23 25 25 24 24 27 28 31 32 35 37 40 45 46 44 42 42 42 43 44 44 41 48 56 55 53 53 55 66
36 46 46 37 32 35 32 39 42 37 50 70 74 44 28 30 28 28 25 28 31 29 32 34 36 39 45 47 49 46 44 39 39 43 48 48 45 56 57 52 51 73 72 78
42 50 69 50 31 24 28 34 34 72 66 60 70 60 30 26 24 26 26 26 29 32 32 35 36 38 46 53 55 51 49 38 41 46 47 48 53 54 52 50 56 73 82 81
43 57 68 43 34 31 38 32 33 41 75 76 96 64 28 29 28 25 26 31 34 34 35 40 40 46 53 60 54 65 48 40 44 48 50 52 52 54 53 61 70 78 71 59
44 50 62 73 57 43 51 41 38 42 64 57 57 47 33 28 27 26 29 36 37 37 40 41 46 57 62 62 71 66 46 42 46 49 49 52 52 56 67 70 78 75 61 62
46 72 54 50 46 47 50 48 42 42 41 53 45 38 30 27 27 30 37 42 44 44 50 65 65 63 66 76 76 63 54 45 47 48 47 52 63 74 84 82 72 63 62 61
51 86 76 82 58 51 54 52 47 42 38 37 38 38 27 25 29 36 43 46 50 62 73 79 69 70 80 78 81 67 52 47 44 49 58 75 95 90 89 74 62 61 64 61
59 91 100 86 64 75 88 60 48 42 35 36 49 38 28 30 39 45 52 53 68 74 79 74 78 76 80 80 79 85 63 64 61 72 89 96 96 86 67 61 63 63 59 50
65 98 100 99 100 94 44 32 34 40 36 34 32 31 33 37 52 56 60 74 76 82 84 83 78 80 81 84 89 87 98 100 94 96 93 91 74 62 65 61 64 54 50 53
39 99 100 100 87 65 54 40 45 47 48 34 39 47 48 54 68 72 69 79 87 84 82 75 74 79 86 84 95 99 99 100 95 78 60 55 60 58 60 60 51 50 54 56
64 97 98 95 95 89 50 36 34 34 61 60 59 60 68 69 93 85 77 78 83 86 81 70 73 80 77 94 87 89 80 67 57 58 58 55 54 60 56 51 51 53 57 58
98 95 99 93 95 74 46 36 43 77 91 72 75 77 74 76 83 78 77 79 83 77 66 78 89 74 82 93 91 69 58 56 69 51 47 50 60 54 54 56 58 56 58 64
69 86 96 100 99 91 38 44 86 63 62 68 80 80 80 71 72 70 70 75 68 70 72 88 78 93 97 92 86 58 45 46 46 47 54 60 57 59 62 64 57 60 65 66
73 66 72 61 65 43 42 47 52 58 68 72 78 67 69 69 66 67 72 70 78 72 81 75 94 99 97 81 49 51 51 49 54 56 59 55 55 60 69 60 66 69 68 76
66 54 72 72 54 48 51 55 58 63 70 81 74 75 76 59 47 46 58 74 79 86 82 92 99 92 76 68 56 54 52 55 54 45 45 48 62 74 68 71 76 71 77 90
71 64 72 73 63 58 60 62 62 68 69 78 72 65 45 43 43 46 72 77 91 85 99 97 92 88 71 62 58 56 55 55 41 42 52 73 77 65 71 83 77 80 84 90
69 74 87 84 61 70 66 64 64 67 82 81 50 43 44 47 59 78 86 86 88 83 92 90 84 61 58 60 63 66 58 44 46 52 60 66 66 76 90 88 90 86 82 87

GFSCGP_850_rhum_003.txt.gz
RH
11 28 27 20 20 17 20 20 22 22 19 23 24 24 20 14 13 14 15 16 16 18 19 20 21 21 22 24 26 27 30 30 30 31 32 31 33 31 30 40 41 48 50 45
21 29 18 16 18 20 21 25 31 23 22 24 26 24 21 16 15 14 16 18 18 19 20 22 25 26 27 28 28 27 26 29 32 32 32 33 33 33 34 36 41 43 43 44
20 20 15 17 22 24 24 30 32 32 30 27 24 27 18 17 15 17 17 17 18 20 21 22 22 24 25 27 28 30 31 31 35 35 33 34 36 35 35 38 42 42 42 44
19 16 17 20 23 24 28 28 29 33 39 42 26 41 20 20 20 20 17 20 22 23 24 25 25 26 27 28 29 30 31 33 33 36 36 34 33 33 34 33 34 35 37 37
24 18 18 25 24 22 29 27 32 35 40 35 32 35 22 21 22 22 24 22 23 24 26 26 26 27 29 30 30 31 32 34 35 35 37 38 37 36 33 34 35 36 38 39
18 17 20 21 24 26 27 35 38 42 40 60 37 37 36 23 19 21 24 24 24 24 26 28 29 29 30 32 35 37 37 38 38 38 38 38 37 38 37 34 35 36 40 43
32 24 22 24 30 31 35 49 79 72 74 72 34 38 36 26 21 24 26 22 21 23 26 28 30 32 34 36 37 40 42 43 43 43 44 42 40 41 41 38 35 36 40 42
52 57 32 28 32 36 41 39 83 77 85 75 42 45 31 23 18 17 18 22 26 27 28 31 33 35 37 40 40 42 45 44 41 39 41 41 42 43 43 41 36 37 42 45
66 50 35 26 26 31 41 61 37 56 87 83 65 43 26 25 28 26 27 27 29 32 33 34 35 37 39 41 43 45 45 44 43 40 39 37 37 38 47 45 46 49 49 46
46 64 44 38 33 33 35 35 65 81 91 87 58 51 48 39 35 33 32 30 32 33 35 35 39 40 41 42 43 43 46 47 44 40 37 35 37 44 51 51 52 50 52 57
50 60 63 49 43 47 42 55 48 50 70 93 98 74 36 36 38 39 28 33 33 34 36 38 40 45 50 51 52 53 52 44 48 38 36 37 39 44 51 56 51 53 73 66
48 58 82 56 40 36 33 46 44 84 90 82 90 74 36 40 34 28 36 38 38 40 40 45 46 47 50 52 52 55 53 58 47 40 40 42 45 48 51 50 48 46 52 62
47 71 88 66 51 51 52 45 49 59 78 75 92 73 37 35 35 35 39 42 43 46 47 48 48 53 52 55 57 65 61 61 57 50 46 47 47 46 46 46 49 55 59 65
44 61 71 87 69 60 67 56 52 60 86 71 70 56 40 35 35 40 45 48 48 51 56 57 61 58 60 64 60 75 74 72 66 49 48 46 45 47 50 56 63 65 58 58
53 75 68 65 59 56 58 56 55 59 58 70 58 51 41 37 39 45 52 56 55 65 73 70 69 72 71 72 78 82 79 77 70 50 46 46 49 51 62 72 75 69 60 58
59 81 75 84 68 66 68 66 58 56 57 54 49 48 37 31 52 56 61 61 68 72 68 68 65 77 67 77 84 82 80 88 90 59 51 57 70 81 82 88 80 64 58 61
70 85 97 83 78 82 85 61 57 52 44 50 68 55 60 62 60 62 66 69 74 74 76 78 81 75 73 83 81 81 78 86 100 96 98 88 82 92 77 78 63 60 61 63
75 94 96 96 99 97 58 42 40 51 49 51 68 72 71 78 78 72 64 71 72 67 76 81 67 71 78 75 76 70 84 100 99 99 89 84 78 80 63 60 61 59 56 47
68 96 98 98 98 75 66 54 49 56 55 69 69 62 64 78 76 73 68 71 71 72 78 68 73 72 67 77 67 70 76 74 70 79 74 56 56 57 56 53 53 48 46 43
89 94 96 98 98 91 62 46 47 45 72 73 77 90 89 86 94 75 73 67 70 75 67 73 68 66 76 69 81 84 65 57 60 58 59 59 48 46 52 51 48 47 52 54
96 97 96 98 96 81 58 44 52 86 76 68 86 84 90 89 80 81 64 61 58 71 71 68 68 75 73 95 93 84 61 52 59 48 50 52 46 46 47 47 50 57 55 62
76 87 97 98 99 94 50 53 71 64 67 62 74 78 79 83 82 70 48 50 71 71 69 67 74 89 99 93 76 47 49 55 67 58 50 42 39 39 46 57 57 55 70 72
81 75 84 83 81 53 48 51 50 54 58 68 75 78 89 87 64 44 44 65 69 72 73 73 91 94 96 76 64 64 76 61 54 49 35 34 40 48 60 66 58 77 75 77
69 55 79 80 57 52 56 55 56 57 62 74 83 99 83 62 52 49 61 70 72 73 69 88 98 90 85 74 65 61 60 54 50 34 39 46 52 64 63 62 83 83 86 90
77 72 78 78 63 59 58 56 59 70 77 85 91 77 59 50 54 65 68 57 62 69 75 89 90 77 61 61 63 62 57 44 39 42 45 48 61 63 66 76 90 91 84 87
72 73 86 84 60 65 68 69 72 80 90 82 65 52 52 58 66 76 66 63 78 81 96 99 83 60 57 57 60 52 43 48 44 39 47 58 64 69 74 68 82 81 92 95

GFSCGP_850_rhum_006.txt.gz
RH
17 28 26 20 20 21 21 24 29 25 22 29 30 32 27 17 18 19 18 18 21 22 21 19 19 22 24 24 24 26 24 26 28 27 28 29 30 32 33 35 34 41 45 41
27 27 18 18 22 22 24 29 33 31 26 30 32 33 24 18 19 18 18 19 20 22 22 24 24 24 25 25 24 25 28 30 31 31 32 32 33 33 33 33 33 36 42 41
26 20 16 20 26 27 26 30 32 35 35 32 31 31 22 18 21 21 20 19 19 19 21 22 22 23 24 26 27 29 30 32 33 35 35 35 35 35 34 34 33 34 38 41
21 17 18 26 24 26 32 24 31 36 41 46 32 50 27 21 21 21 21 20 20 22 24 24 25 26 26 28 29 30 31 33 35 36 37 38 38 38 37 37 35 34 34 37
23 17 21 26 24 26 31 30 39 38 46 42 40 42 30 21 21 23 28 25 25 25 26 26 27 28 30 30 32 33 34 36 38 41 42 43 43 43 42 40 38 36 35 34
21 18 21 22 25 28 32 38 44 47 48 63 40 39 38 32 24 32 30 25 24 26 26 28 29 30 33 36 39 41 44 45 45 43 41 39 39 39 44 45 43 40 36 36
41 29 24 26 35 35 41 56 79 69 77 71 44 47 36 28 28 27 27 26 25 26 27 29 31 33 37 38 39 42 44 44 43 42 42 38 36 39 41 40 41 47 42 44
64 61 40 29 32 36 41 53 82 77 84 75 50 45 37 26 24 23 23 26 28 32 33 34 37 41 43 43 43 43 44 41 42 45 44 37 39 39 36 37 39 46 53 50
72 56 40 33 32 33 41 59 43 63 91 86 69 49 33 30 38 31 30 30 34 34 37 39 42 42 43 44 46 48 49 49 44 44 44 42 41 42 40 40 42 55 57 49
51 68 48 45 38 36 35 38 64 82 84 94 71 63 52 40 43 40 41 35 39 38 40 42 43 48 49 46 45 44 44 45 48 52 53 48 44 41 41 45 50 54 50 50
51 60 60 49 49 51 49 65 56 59 81 96 98 84 48 46 45 45 42 41 42 44 46 46 46 48 52 53 52 58 57 62 56 56 62 60 51 45 48 53 52 50 53 66
51 68 81 57 48 42 42 53 61 88 82 88 92 72 37 46 37 39 43 45 48 48 50 52 54 55 47 45 56 59 50 57 61 70 67 60 50 51 54 55 54 53 54 55
46 69 83 59 48 55 58 51 56 67 82 85 93 79 37 36 40 45 50 54 53 55 57 60 56 53 52 49 53 52 62 72 77 79 61 56 52 52 49 48 47 47 50 59
45 66 67 78 60 67 73 59 55 64 93 79 75 66 50 44 50 54 59 60 60 62 64 63 56 56 62 59 63 60 71 84 82 74 70 56 52 49 47 49 53 57 66 68
57 74 68 69 64 64 66 66 66 74 69 86 69 64 53 61 58 60 63 66 66 69 71 65 58 59 70 57 59 66 84 80 73 72 80 54 51 53 59 72 75 84 78 56
66 84 78 80 72 76 82 71 70 70 66 65 64 59 67 72 71 71 71 71 74 74 68 52 54 69 69 64 72 82 78 66 70 99 95 72 73 81 82 97 93 73 70 62
73 87 97 74 91 94 94 75 67 57 55 58 76 64 72 82 79 77 77 68 71 73 61 65 70 75 66 62 72 73 67 65 80 94 100 99 96 88 72 77 76 72 64 61
85 95 96 97 97 99 61 52 52 57 58 54 71 73 76 78 74 76 70 66 71 66 63 68 78 76 74 71 75 69 67 69 76 84 90 94 95 95 75 63 59 55 53 47
72 98 99 97 96 76 67 57 51 56 67 67 78 77 74 70 78 74 68 74 76 62 63 72 76 73 66 73 74 74 77 66 88 64 69 62 72 84 85 76 56 47 44 42
90 92 87 94 99 88 62 48 46 55 83 66 70 75 78 81 97 76 82 90 61 58 75 75 73 69 69 80 86 87 72 67 66 77 67 72 65 54 47 43 43 45 50 52
98 98 96 100 99 87 61 47 53 76 64 61 64 67 74 90 82 86 92 76 56 70 71 68 68 67 80 92 97 90 59 58 81 84 67 53 40 37 38 43 51 56 52 54
71 85 95 96 99 94 54 56 75 63 62 60 61 69 83 89 87 83 75 59 61 61 62 54 61 88 86 84 76 69 65 73 68 59 52 37 35 41 48 58 61 56 66 77
81 74 80 81 80 56 52 54 55 61 60 63 79 88 98 94 90 93 70 58 60 62 56 60 83 93 87 78 71 68 68 63 57 51 34 37 40 44 60 64 64 73 86 92
71 56 83 78 57 54 56 55 59 58 70 90 97 88 90 90 87 63 70 71 63 51 67 73 92 90 78 76 65 66 66 60 41 34 34 35 40 51 61 68 70 88 91 81
81 86 88 83 71 67 61 56 64 76 92 89 86 91 94 64 52 69 75 59 49 65 74 82 88 96 88 65 62 60 54 38 38 39 44 47 56 65 76 79 77 85 87 88
73 73 90 85 61 66 66 76 82 82 92 97 99 89 58 51 61 74 62 57 63 78 84 89 78 68 71 64 59 58 37 39 47 50 56 69 79 84 90 89 83 90 90 90

GFSCGP_850_rhum_009.txt.gz
RH
21 29 26 21 21 22 21 26 32 28 24 33 34 39 33 25 20 19 19 18 20 20 19 17 17 21 23 27 27 26 26 29 30 31 31 33 33 35 35 34 34 33 33 32
30 26 19 22 24 23 25 29 32 33 29 35 36 36 24 21 21 24 22 25 21 21 22 23 24 25 25 26 27 27 28 30 31 33 36 37 38 37 37 38 36 35 35 34
30 21 18 22 28 29 28 30 31 35 37 33 37 34 24 21 23 23 24 24 25 23 23 23 23 23 25 26 27 28 29 31 33 35 37 39 40 40 41 39 41 41 39 36
23 17 22 27 26 28 34 25 31 38 42 47 37 44 31 22 22 23 26 24 24 23 24 24 24 25 26 27 29 30 31 32 34 37 41 44 44 44 44 43 38 39 45 41
24 19 26 28 27 28 36 37 41 40 46 45 41 44 37 29 22 25 30 26 24 23 25 26 26 27 28 29 30 32 33 35 40 44 44 44 46 43 42 36 39 40 45 49
34 21 23 25 27 32 34 42 48 50 52 62 43 44 42 37 32 32 30 25 26 27 26 28 30 31 31 34 36 39 43 45 46 46 45 44 45 44 42 36 39 38 37 38
48 39 34 29 36 37 44 59 74 63 75 71 49 45 41 30 30 30 30 27 26 26 27 29 31 33 38 43 45 45 44 44 44 43 41 42 39 36 40 40 41 40 40 40
67 55 44 36 34 38 42 54 80 67 85 78 54 50 39 28 25 25 24 25 28 32 32 33 40 45 46 46 46 46 46 45 44 42 42 43 42 45 47 48 44 42 42 52
78 57 44 38 40 36 43 63 49 74 94 89 72 53 38 37 45 33 30 35 40 44 46 47 44 45 49 49 49 49 46 44 41 44 48 46 46 44 56 55 45 44 44 53
56 73 50 47 39 40 41 42 67 85 85 90 77 73 58 44 51 43 49 46 46 46 46 47 48 49 53 51 48 44 44 45 45 44 45 51 51 50 58 52 49 48 53 60
49 61 55 46 50 53 57 68 62 66 83 95 98 83 56 52 53 50 51 49 49 49 50 53 55 56 53 47 47 52 54 49 51 59 66 72 60 56 58 54 53 53 54 55
53 69 80 53 49 49 46 62 64 87 81 89 94 74 42 42 48 50 54 56 53 53 53 55 55 57 48 54 58 49 51 48 56 70 79 66 58 59 59 56 53 51 54 75
48 71 79 53 46 46 57 56 63 74 84 87 93 76 45 41 46 56 59 59 60 59 59 60 61 61 55 64 63 51 55 65 75 76 71 62 60 65 59 54 53 55 59 63
46 67 64 79 53 61 69 66 62 68 92 83 78 65 54 54 59 60 62 63 64 65 66 67 70 60 63 66 60 51 52 65 73 68 63 58 74 59 53 55 62 69 72 91
59 71 68 70 66 67 68 72 70 79 77 90 74 74 60 61 70 67 67 68 68 65 70 74 67 64 69 71 56 64 68 70 69 60 63 92 68 57 59 71 83 82 94 82
71 83 77 81 75 79 84 76 78 77 80 80 77 71 50 66 71 75 71 72 75 67 70 74 62 64 70 64 68 72 69 75 64 70 86 99 96 95 97 98 95 86 94 98
73 90 98 83 93 96 78 75 75 68 58 59 75 63 66 76 73 73 73 73 71 66 74 70 62 63 61 71 75 67 72 70 71 79 86 97 100 98 98 91 79 71 75 71
93 95 96 94 92 92 56 50 52 62 60 59 62 71 71 72 67 74 73 72 76 79 69 63 55 59 64 74 66 68 78 78 87 99 96 89 83 77 77 77 70 70 55 50
78 95 96 96 96 77 62 54 53 54 61 58 69 72 64 62 74 77 66 82 84 75 80 73 69 74 67 58 70 85 85 84 88 83 88 89 79 60 54 50 50 47 48 49
92 91 90 96 97 96 65 45 45 59 91 65 68 72 65 74 95 76 99 92 91 78 73 72 74 57 54 80 94 89 90 92 88 76 73 72 58 50 42 39 43 51 54 52
97 97 97 99 98 88 64 50 52 88 73 54 61 66 71 84 80 99 94 81 69 55 65 72 56 54 82 93 88 77 71 66 68 71 68 56 41 37 39 44 53 55 55 58
73 84 95 96 99 94 54 58 72 61 53 61 68 77 91 96 98 98 94 67 60 77 63 47 58 79 96 88 77 70 68 70 74 61 54 37 37 38 42 52 58 62 62 66
86 74 81 77 80 54 52 52 51 62 65 70 88 98 91 100 99 80 51 67 75 64 47 58 73 84 84 86 84 76 72 79 76 44 36 36 40 44 54 63 68 67 70 71
78 66 88 75 60 55 56 62 61 64 72 94 93 96 98 99 86 56 58 76 75 56 47 63 82 86 79 92 87 87 79 64 42 41 45 47 48 54 65 76 82 79 80 82
78 87 88 80 71 72 68 63 70 86 94 94 98 98 78 49 50 62 64 76 65 61 61 79 83 78 66 70 65 63 66 44 42 50 57 61 65 81 87 88 89 89 92 89
84 80 92 90 64 68 66 91 99 94 93 99 76 53 47 58 61 62 74 76 75 75 62 72 64 69 68 64 63 63 60 46 48 58 69 71 79 93 96 95 89 91 88 89

GFSCGP_850_rhum_012.txt.gz
RH
24 30 27 23 23 23 23 26 33 31 27 35 37 42 34 23 23 21 21 22 21 21 20 19 18 20 23 28 29 29 27 29 29 31 33 36 38 38 39 39 39 39 39 40
30 26 21 26 26 25 24 30 31 33 32 36 39 37 26 26 27 28 27 27 23 21 20 20 20 21 24 26 27 26 27 29 31 33 34 36 37 40 42 43 42 42 43 40
31 22 24 25 30 35 33 28 30 35 38 36 40 31 32 22 25 27 28 26 23 21 21 21 22 23 24 25 26 28 29 30 32 33 35 37 41 44 45 45 44 43 39 39
26 20 26 31 29 31 38 27 32 40 46 47 39 43 36 34 25 30 26 24 23 24 24 24 24 24 25 27 28 29 30 32 35 38 41 45 45 46 46 45 43 40 40 40
24 23 30 35 30 30 39 39 44 42 50 47 46 45 35 35 27 28 28 23 24 25 25 25 26 26 27 28 30 33 36 39 43 45 46 47 45 44 43 41 40 40 40 41
38 25 27 28 28 34 38 46 45 54 55 63 49 47 43 40 34 33 32 29 28 28 28 29 31 32 34 38 43 44 44 45 45 44 44 44 42 42 41 37 36 35 39 41
50 41 40 32 39 39 48 56 65 63 74 70 51 49 42 36 32 30 28 28 28 31 32 34 36 38 45 46 47 46 46 46 46 45 42 39 37 36 35 32 29 31 42 44
68 51 45 39 37 41 46 56 78 58 86 81 58 51 47 31 37 36 33 36 36 38 41 43 48 49 49 49 49 48 46 45 45 42 39 38 38 42 40 35 33 40 50 48
80 56 47 42 45 39 45 66 53 78 96 89 73 56 43 43 52 45 45 45 46 46 48 47 47 49 49 50 49 44 43 42 44 42 44 44 43 40 38 41 38 54 52 52
56 70 48 47 40 41 47 47 66 85 90 88 74 70 60 55 57 53 54 50 49 48 48 50 50 51 53 54 47 47 50 44 45 43 41 45 52 53 54 48 53 57 55 58
50 60 48 46 52 55 59 68 67 70 85 95 98 80 58 55 53 54 54 56 55 53 54 54 56 58 60 57 54 56 47 36 35 43 55 68 65 54 48 55 61 58 62 68
56 70 75 49 43 52 53 57 64 83 74 90 94 80 49 52 51 52 57 59 60 59 55 55 59 64 67 60 62 59 49 52 58 66 70 64 57 52 64 66 58 65 67 64
49 71 75 47 46 48 59 59 67 77 84 82 92 72 47 45 47 54 60 62 61 59 56 58 54 65 69 63 70 74 64 68 69 71 68 64 55 66 67 64 59 65 66 77
49 69 61 74 55 57 68 68 67 72 91 77 81 66 55 53 60 57 61 61 62 58 61 61 62 74 65 65 71 74 72 75 69 64 66 60 67 81 61 64 67 70 77 82
61 73 73 70 67 70 71 77 75 86 80 89 68 77 66 63 66 66 64 62 64 66 71 71 79 70 58 60 67 49 69 72 64 71 67 70 98 92 67 65 69 76 87 94
74 81 81 86 84 87 94 83 82 84 83 86 82 87 60 52 69 66 60 64 71 75 83 85 69 62 63 50 53 71 66 55 72 74 80 99 100 99 99 98 92 93 92 84
74 91 96 86 90 90 72 55 73 68 70 68 70 57 56 72 70 66 70 73 80 90 83 78 71 51 59 72 77 55 54 73 83 89 100 99 94 95 95 89 80 73 73 66
98 94 96 96 87 89 53 53 52 64 62 59 64 65 68 68 66 66 68 69 92 91 84 55 57 78 78 67 55 67 83 81 83 86 84 82 81 70 61 56 52 49 48 47
79 97 98 98 86 78 59 48 51 58 64 54 64 69 63 64 67 67 75 84 95 88 70 58 82 85 59 50 65 91 88 88 84 73 72 68 70 61 52 40 40 46 53 56
91 90 92 98 96 97 65 47 47 62 87 63 64 57 62 68 94 82 99 98 91 67 58 74 78 49 49 72 93 85 83 67 73 75 79 65 58 44 36 39 45 53 60 62
97 97 99 99 98 88 65 52 54 83 71 57 58 65 71 87 97 99 92 67 49 60 70 75 50 48 66 83 86 82 73 70 76 88 82 56 37 35 37 42 53 60 65 65
69 79 93 98 98 95 54 58 68 56 59 62 70 79 100 99 98 84 57 41 53 65 80 60 48 58 77 85 87 94 84 79 90 80 56 38 41 44 46 53 61 70 74 73
84 74 79 78 83 55 54 55 53 56 71 77 84 99 98 100 96 62 52 60 65 77 73 61 55 62 74 72 69 86 73 70 75 59 42 46 53 55 61 69 77 79 81 83
77 70 87 75 65 66 60 58 67 77 87 99 99 99 97 67 51 59 68 63 64 78 74 71 62 67 59 66 61 64 69 72 65 47 46 56 66 67 71 83 90 90 87 88
85 81 90 89 72 74 68 69 83 92 100 99 100 77 52 59 68 68 72 61 71 78 75 83 71 61 58 64 70 69 70 72 56 50 52 64 78 80 75 83 94 96 94 94
74 85 95 83 63 70 86 95 88 99 98 72 48 52 63 74 72 74 64 63 66 71 75 83 77 77 72 75 76 71 66 72 64 58 62 75 85 90 80 84 87 92 94 96

GFSCGP_850_rhum_015.txt.gz
RH
22 24 26 26 25 24 24 26 30 28 28 31 34 33 24 25 27 26 25 21 24 34 26 20 19 19 21 25 33 33 31 28 29 30 32 34 37 37 38 41 44 46 44 44
26 28 23 26 27 25 26 29 27 29 30 34 34 28 26 26 32 35 33 28 24 22 21 20 21 21 22 25 29 31 30 30 31 32 33 34 35 36 38 43 45 44 44 44
31 23 25 24 32 34 34 30 32 33 34 34 33 27 28 23 27 28 28 26 24 22 22 22 24 25 26 28 30 31 31 33 34 35 37 41 43 44 45 46 44 42 41 40
26 24 29 34 33 34 38 31 39 40 41 37 38 31 30 30 26 28 27 26 27 27 26 27 28 29 30 31 32 33 35 37 41 45 48 47 47 46 44 43 41 38 36 34
25 28 34 37 32 33 39 42 44 43 46 42 39 33 32 31 29 28 31 26 26 28 28 29 30 32 34 37 38 42 45 48 48 46 45 43 41 39 40 38 32 28 24 22
39 31 32 33 31 35 39 43 41 47 47 50 47 40 43 37 34 32 31 32 30 30 32 34 38 44 46 48 48 48 47 46 43 41 40 39 39 36 33 29 27 23 24 25
44 40 39 35 37 37 42 44 46 54 60 54 48 43 44 41 39 37 37 40 41 41 40 40 42 47 49 48 47 46 44 42 40 43 43 37 33 34 34 34 36 36 33 32
57 43 43 43 40 42 48 50 62 54 63 60 53 49 48 40 43 39 47 50 51 53 52 51 50 49 49 49 49 49 47 45 46 48 44 37 43 47 46 41 37 32 35 48
65 49 45 46 46 41 46 59 52 71 89 78 56 49 42 44 41 48 49 47 50 51 51 51 50 49 51 53 57 56 52 51 42 33 36 42 47 47 41 40 37 34 46 59
58 59 46 44 42 44 44 46 56 68 75 69 53 59 44 48 47 48 49 57 54 52 52 49 49 50 57 62 65 60 57 53 49 52 54 63 62 56 49 42 42 53 59 68
51 55 44 46 51 54 52 55 62 61 74 82 92 57 49 48 48 46 49 59 57 55 53 53 57 58 61 69 71 62 67 74 65 66 70 68 58 48 48 50 64 60 69 83
57 64 56 45 48 51 52 54 54 61 63 76 83 60 42 47 50 51 53 61 59 57 58 60 62 60 67 72 66 63 70 72 68 73 72 61 55 59 56 63 64 68 83 67
52 65 58 36 43 44 56 58 64 69 76 74 82 55 45 49 42 52 56 59 56 52 60 66 68 68 72 69 64 68 57 53 64 70 57 57 67 69 76 66 68 74 74 74
51 65 56 52 40 50 62 63 64 66 85 67 68 53 44 44 48 54 62 59 61 54 62 78 78 74 70 62 59 54 58 70 60 50 62 75 81 86 88 73 76 77 80 86
61 74 69 64 60 66 66 66 67 72 68 80 60 57 51 49 57 60 64 60 65 68 81 89 80 74 66 60 56 64 70 54 57 66 79 90 96 100 99 99 97 97 94 85
72 74 81 86 77 74 83 68 72 73 70 72 69 71 52 60 70 67 65 68 73 88 93 83 70 56 54 76 78 65 47 59 81 81 86 99 100 95 84 69 62 58 57 59
76 86 92 74 80 78 74 52 68 60 61 61 66 47 61 60 66 63 66 77 96 99 90 57 40 45 78 83 56 47 63 85 86 85 84 73 70 72 65 61 55 46 44 46
98 94 94 94 84 74 47 50 50 56 54 57 56 56 60 61 64 72 89 96 99 90 84 58 54 76 80 53 44 60 80 80 82 76 76 78 74 64 57 50 38 40 45 50
79 97 98 96 82 72 54 46 53 61 54 49 58 60 62 63 73 70 99 100 94 61 45 58 69 79 54 48 59 74 78 87 71 77 81 79 74 62 37 34 37 42 48 52
87 86 90 96 97 93 63 47 52 62 68 61 65 67 70 69 96 76 100 98 60 48 58 64 79 63 49 54 74 82 86 85 73 81 77 70 57 38 39 45 48 52 58 66
98 98 95 90 92 82 61 57 53 84 78 64 67 70 77 81 95 96 100 59 60 61 66 77 81 62 53 56 58 68 87 87 91 90 68 71 42 46 50 52 58 66 75 78
67 80 90 96 97 93 54 56 68 63 71 70 78 80 96 99 99 96 63 66 66 57 65 78 75 70 64 52 50 53 51 70 77 74 74 54 46 56 65 66 69 80 89 87
81 71 76 76 78 54 52 54 56 74 86 92 94 99 98 86 72 57 69 73 70 61 60 82 82 77 80 55 56 46 47 63 71 72 67 51 52 64 78 79 78 88 95 94
73 69 85 78 66 61 56 63 77 93 95 97 98 90 65 74 72 73 72 68 74 63 58 64 72 78 84 66 64 68 72 74 74 75 62 59 61 72 85 88 82 93 99 100
71 83 87 87 71 70 62 72 96 98 98 88 66 68 66 72 68 68 68 76 72 65 66 70 76 87 90 86 78 92 90 87 85 77 69 71 76 87 95 88 85 90 97 98
80 84 93 85 65 78 91 100 97 94 57 62 55 37 30 33 45 70 76 72 66 68 68 65 86 94 84 89 92 72 64 66 66 78 77 81 87 97 96 88 84 85 91 92

GFSCGP_850_rhum_021.txt.gz
RH
13 13 14 12 12 12 10 12 12 11 13 15 13 13 13 14 14 15 15 16 16 18 31 34 38 39 43 52 55 60 65 68 58 51 46 41 43 43 44 46 56 64 63 65
11 16 15 14 14 14 14 15 15 15 15 17 15 14 14 15 18 17 18 20 23 27 29 35 41 47 50 51 51 50 50 51 48 42 47 49 47 50 53 56 58 58 59 48
15 16 16 17 17 18 17 19 22 21 17 16 17 17 16 16 17 18 20 21 22 24 26 31 39 46 52 54 50 48 52 55 58 40 49 50 49 48 47 49 54 55 63 67
16 18 18 18 21 21 21 21 24 23 21 19 17 21 18 17 18 19 21 23 24 25 29 34 39 47 56 59 57 55 55 55 59 45 52 50 55 55 56 61 61 68 72 65
20 19 21 22 24 22 23 25 25 25 24 19 18 17 22 16 20 21 24 27 29 31 34 38 43 50 57 63 64 62 55 58 61 55 54 62 62 62 64 66 67 64 52 52
20 21 21 24 22 22 23 26 24 26 24 31 23 22 23 21 22 23 26 32 35 37 38 40 44 44 51 60 62 59 56 53 57 66 70 72 72 71 62 60 60 54 58 56
21 23 23 25 24 23 22 25 35 41 38 36 25 22 32 26 25 26 29 34 37 39 40 40 42 43 49 55 57 59 56 58 58 61 63 65 64 66 64 65 62 69 64 60
25 36 25 24 28 30 27 29 46 44 39 30 26 23 28 25 27 30 30 32 34 37 41 41 44 48 49 53 57 64 65 61 57 61 65 68 74 70 73 71 77 73 67 66
29 31 25 27 26 26 29 36 29 45 57 51 22 25 28 26 28 29 30 32 36 38 41 40 42 44 49 52 54 61 66 61 60 65 70 76 74 77 77 81 75 70 72 73
29 35 25 25 27 29 29 28 41 36 60 40 19 19 22 34 30 27 27 29 34 36 40 41 43 46 49 52 57 60 59 58 66 68 70 72 78 78 80 72 73 74 78 79
24 29 29 23 29 27 29 33 33 28 37 45 38 25 23 24 25 27 26 32 36 39 42 40 42 49 51 55 58 55 56 63 66 66 68 69 70 75 75 72 72 76 79 80
32 32 34 22 26 29 28 30 30 41 34 39 52 41 22 22 26 29 30 34 38 43 41 43 45 52 54 58 56 56 60 61 63 62 60 63 67 70 70 72 84 89 88 94
34 38 35 26 32 32 32 29 30 34 46 45 67 44 22 23 24 25 28 38 40 41 42 47 51 51 52 54 55 55 60 62 62 58 57 59 63 85 93 94 89 87 92 89
43 34 34 37 27 23 27 26 23 29 50 49 43 32 24 22 26 27 30 37 39 42 45 50 51 53 56 54 49 58 59 60 55 58 61 62 82 94 90 96 90 82 76 72
38 46 34 32 26 24 26 28 28 29 30 46 40 33 27 26 29 35 38 39 41 43 47 53 58 58 53 45 52 57 56 54 54 61 60 62 73 77 83 83 80 72 64 58
38 51 56 48 30 27 34 28 27 28 32 32 32 34 26 31 31 37 40 48 52 50 58 71 63 51 44 47 54 55 55 55 55 59 60 61 70 81 87 75 72 58 52 53
49 57 55 65 48 57 79 41 30 29 30 34 43 33 27 32 38 51 54 57 57 67 83 72 52 47 45 50 54 51 51 50 49 56 57 64 78 78 76 67 53 51 54 57
71 63 82 91 88 87 39 26 27 31 30 28 28 28 32 41 51 51 64 74 77 87 80 60 48 45 45 46 52 49 48 50 50 47 59 73 76 78 71 54 51 54 56 59
47 67 86 91 62 44 37 35 36 41 43 30 35 38 43 51 60 49 83 87 74 75 61 51 48 42 40 44 50 49 50 50 46 45 50 63 76 76 62 52 57 59 60 63
55 66 76 86 95 79 42 32 38 38 54 44 49 50 54 61 83 66 89 89 74 59 49 45 43 42 42 41 47 50 48 52 51 46 50 56 70 71 61 57 61 62 61 62
92 90 94 84 88 59 34 38 42 63 66 56 60 77 86 91 91 90 85 65 55 50 47 43 44 43 42 43 45 46 44 48 51 51 56 60 81 89 67 65 64 61 64 69
72 91 96 84 88 88 38 40 73 60 62 72 81 92 98 85 75 64 56 51 45 40 37 39 44 46 48 47 46 44 42 48 62 71 77 98 95 96 74 72 65 67 70 76
49 47 55 56 56 34 39 44 56 66 70 80 90 92 84 64 54 52 46 40 37 37 38 41 44 46 46 46 46 47 50 63 79 87 99 98 97 90 78 83 75 71 70 90
40 34 57 60 41 39 46 57 81 82 83 90 86 70 59 55 47 42 39 34 31 31 34 39 43 44 45 45 45 51 61 84 90 94 93 98 97 94 82 76 67 68 86 100
49 46 55 60 46 53 71 87 93 92 94 84 62 57 52 42 42 36 31 32 34 37 39 44 45 45 46 47 53 60 83 91 91 90 86 83 84 88 98 94 78 88 94 96
49 49 66 78 64 83 92 92 86 92 68 61 52 46 45 41 34 34 39 41 41 44 46 43 42 44 50 55 70 85 94 99 99 85 89 86 93 94 94 98 98 92 92 90

GFSCGP_850_rhum_024.txt.gz
RH
12 14 15 13 11 10 10 10 10 10 12 13 11 11 12 13 13 14 14 14 16 30 35 39 39 41 43 53 58 62 64 68 62 55 49 43 44 44 45 46 52 56 58 59
10 14 14 11 11 12 12 14 14 13 13 14 13 14 13 14 16 16 17 18 28 30 37 43 48 48 50 50 48 50 51 51 47 47 46 47 49 47 47 48 56 54 55 58
19 16 13 13 14 16 14 16 22 20 16 14 15 16 16 16 17 20 21 22 24 27 32 39 49 55 54 51 49 51 53 53 47 39 49 48 44 48 48 49 49 55 61 65
16 14 15 16 17 19 19 21 22 20 20 21 15 22 18 18 19 20 22 23 24 26 31 38 46 55 58 58 56 55 54 56 56 47 48 50 60 59 60 62 64 62 61 58
18 17 19 19 23 20 21 22 22 22 23 21 17 22 21 18 22 23 25 28 29 32 36 40 47 56 62 61 63 60 54 52 56 63 68 71 72 66 61 64 62 62 60 58
18 17 20 22 20 19 19 24 22 22 25 43 21 20 31 20 21 25 28 32 35 36 37 40 42 46 54 57 59 60 55 56 57 59 62 64 66 67 67 68 69 69 70 65
20 21 21 20 23 21 21 25 48 61 52 52 25 26 32 23 23 25 31 35 36 38 39 38 40 43 46 51 55 59 61 62 59 58 61 65 68 74 72 74 75 78 71 67
25 37 23 21 25 27 26 25 60 56 62 47 23 23 34 25 27 29 30 32 34 36 39 39 41 43 45 49 52 55 60 63 60 60 64 68 72 74 75 72 76 74 73 72
26 31 22 22 22 22 27 37 24 37 58 60 23 31 26 25 27 27 29 30 33 36 38 39 40 41 45 48 51 55 61 58 57 63 68 68 71 72 70 72 72 71 71 75
25 35 21 20 22 27 23 22 41 52 64 47 23 22 39 32 31 28 26 27 31 33 37 38 39 41 46 51 54 57 56 56 59 64 66 67 66 66 69 71 70 71 77 74
23 26 27 20 27 23 26 28 30 26 42 54 52 31 22 25 26 28 26 28 34 37 38 39 42 47 52 54 55 57 56 58 60 62 62 59 59 61 68 72 77 79 79 73
27 29 49 22 20 22 23 27 28 63 48 57 59 44 22 22 25 27 30 33 36 37 40 43 46 50 51 52 54 56 55 58 61 62 57 54 58 64 74 79 72 82 80 80
34 40 52 32 31 29 24 24 26 35 56 59 69 45 21 22 34 28 29 30 35 39 41 44 48 51 52 54 54 50 54 58 60 53 53 58 59 71 74 72 81 84 78 76
44 32 34 45 29 23 25 22 22 25 66 56 53 37 26 24 31 31 32 35 37 40 42 45 52 56 58 54 48 46 52 56 53 54 54 58 59 68 75 76 83 85 79 70
37 45 35 32 24 23 24 26 25 28 29 44 39 30 26 30 30 33 46 47 49 48 52 59 66 65 56 47 44 46 55 55 52 53 53 57 56 65 72 73 79 79 70 56
36 58 61 54 26 26 33 29 30 27 25 26 32 32 24 28 42 45 46 46 48 62 68 67 69 60 48 45 45 50 54 48 49 50 50 52 57 74 74 73 76 68 53 53
48 67 68 74 57 62 83 51 28 28 26 30 45 34 25 41 46 49 53 58 69 70 74 70 64 52 46 45 42 40 48 50 57 56 50 51 60 78 73 73 73 55 55 57
71 66 89 90 90 81 34 24 25 31 28 28 28 28 40 47 49 45 68 76 77 72 65 62 52 45 43 40 38 41 46 53 54 55 58 52 60 76 74 75 67 54 60 59
43 73 93 98 68 48 36 34 39 42 44 33 40 46 50 53 54 48 75 80 77 67 58 48 43 44 42 44 44 43 42 42 41 44 68 76 84 74 70 73 69 58 62 61
49 69 84 86 93 76 45 32 36 35 59 50 54 61 64 64 85 75 73 76 56 48 43 41 40 38 45 43 45 45 44 41 41 62 79 89 74 84 75 80 91 67 67 64
91 84 96 79 78 67 36 36 40 61 75 68 71 75 75 76 80 74 63 54 45 39 36 32 33 36 39 41 43 42 41 40 45 57 68 83 85 79 86 97 92 78 73 74
82 90 95 77 86 85 37 38 77 67 66 75 76 79 81 74 67 51 47 41 37 32 29 29 30 34 38 40 40 42 43 46 52 61 63 69 81 98 88 82 81 79 73 69
56 64 69 67 69 44 47 56 68 74 76 81 79 80 72 60 50 46 41 36 30 30 32 34 36 38 38 40 43 47 48 57 68 77 85 91 90 92 90 96 91 71 69 75
35 31 70 60 43 38 59 79 79 84 82 75 85 66 55 53 44 41 36 32 35 37 38 38 40 40 42 41 45 52 66 74 81 88 86 90 93 92 90 92 76 79 79 79
53 42 50 57 44 47 78 87 89 81 86 81 58 54 47 44 42 36 34 35 38 39 41 42 43 42 47 50 57 69 80 83 93 93 87 80 89 96 97 95 89 91 88 89
52 50 70 76 58 65 75 89 81 80 72 60 48 46 45 38 34 37 39 39 40 42 42 44 46 50 57 66 76 78 85 90 89 86 80 85 87 91 94 87 92 94 94 93

GFSCGP_850_rhum_027.txt.gz
RH
15 24 25 16 14 12 12 16 20 18 15 14 15 15 19 18 16 16 38 37 43 45 46 44 45 42 41 46 41 46 54 58 66 58 52 46 49 48 46 47 49 55 56 55
19 25 16 12 12 16 16 19 27 18 16 16 17 18 21 21 26 32 34 40 42 44 44 47 50 47 47 54 56 57 60 54 46 45 45 45 44 42 52 54 60 58 64 67
25 17 12 15 24 24 26 29 26 24 21 18 19 22 24 24 23 26 29 33 36 44 48 47 46 47 45 43 47 46 42 40 44 42 47 49 45 46 51 54 58 64 64 62
22 16 18 18 26 25 31 28 26 26 28 34 21 36 28 28 29 29 30 31 36 41 46 49 51 51 49 52 51 53 53 52 52 54 54 55 57 59 60 58 56 55 57 60
21 21 28 29 26 22 28 23 26 27 32 32 32 35 31 28 35 36 34 32 36 38 42 45 45 48 52 53 51 48 54 57 59 59 59 60 62 64 67 68 68 69 69 68
22 20 24 25 22 21 20 29 33 33 37 61 41 39 38 32 35 40 38 36 36 38 40 42 45 51 51 54 55 58 57 57 61 60 62 66 66 68 72 70 69 70 72 74
23 27 24 21 29 24 28 40 73 71 84 69 50 48 52 40 34 39 42 39 39 39 41 42 46 49 50 51 55 59 60 62 63 61 59 65 71 72 75 74 67 70 70 67
42 42 29 24 28 30 33 33 77 62 83 69 34 48 46 38 35 36 36 36 38 39 40 40 42 44 47 50 51 51 54 60 59 60 62 64 65 69 73 69 68 67 58 67
46 38 26 26 24 28 30 45 26 53 63 79 47 40 38 35 35 32 34 36 37 38 38 40 41 44 46 48 51 55 57 58 56 60 64 66 66 63 62 61 60 58 67 75
28 41 23 25 22 28 28 25 54 69 64 59 46 51 66 43 38 35 32 34 36 38 39 40 42 45 47 49 51 52 57 57 58 61 62 63 61 57 56 58 69 73 77 76
36 43 32 21 30 32 37 39 38 40 65 75 79 52 36 45 41 42 39 37 38 38 41 43 46 48 50 51 53 56 56 56 57 60 62 61 53 55 59 64 73 76 44 52
31 46 56 34 26 24 25 32 39 76 56 79 83 62 26 44 37 34 33 33 38 41 42 43 46 52 53 54 52 54 52 56 56 58 58 53 53 54 58 59 62 59 55 78
42 45 73 49 41 35 26 26 38 59 71 60 72 58 30 35 34 35 36 43 45 45 47 50 52 56 52 52 54 49 46 49 54 56 54 53 53 52 57 58 63 59 61 73
46 40 51 68 38 30 28 28 27 52 85 72 72 52 36 51 47 49 47 47 49 55 59 60 61 55 48 50 47 44 46 51 54 54 52 53 51 54 57 59 66 60 55 71
49 56 51 47 35 31 28 31 33 35 40 55 50 45 38 50 53 52 52 55 57 62 66 68 64 54 52 49 47 47 47 46 47 50 55 59 56 58 58 70 84 72 62 65
52 75 54 50 46 46 42 44 46 40 35 35 38 41 46 51 51 59 65 67 72 72 68 65 64 58 52 47 46 43 39 46 51 52 57 55 59 70 80 90 83 90 69 56
68 76 82 81 73 79 76 51 38 32 33 34 48 46 54 57 60 70 75 77 75 66 63 64 56 51 45 44 43 46 47 46 43 42 44 65 72 79 78 88 96 93 69 56
71 80 96 90 83 57 52 33 34 40 42 41 50 59 59 59 66 71 75 71 55 58 53 47 46 43 41 45 46 48 46 44 43 42 52 51 59 71 93 93 98 98 65 66
61 87 96 94 94 62 47 40 45 48 59 63 67 69 67 61 55 75 72 56 56 53 48 40 36 34 36 40 40 42 42 41 41 44 51 53 59 62 70 87 86 92 95 76
74 81 86 91 92 84 60 42 36 37 79 70 73 78 76 63 88 80 59 58 53 41 36 30 30 31 32 37 39 38 39 42 44 50 50 54 62 57 92 98 97 98 90 82
96 91 96 94 89 80 58 41 40 65 74 75 73 77 72 82 77 67 65 46 41 34 31 32 32 34 35 36 37 40 43 50 54 54 56 62 68 77 93 98 97 86 91 91
84 94 96 85 82 91 44 50 60 71 76 77 76 76 68 71 66 58 46 41 34 32 35 36 37 39 38 40 44 47 50 56 59 63 66 66 78 75 94 94 98 95 83 72
74 80 90 78 80 51 51 55 63 64 77 79 73 73 70 70 53 46 42 35 34 36 38 40 43 42 44 46 48 56 63 66 70 70 65 76 78 81 93 99 97 90 82 80
49 50 78 71 56 59 66 74 73 76 75 69 63 68 58 53 45 41 36 38 40 41 42 42 42 45 48 52 58 64 66 72 70 71 75 80 79 87 93 97 97 86 81 86
60 56 58 70 55 76 80 73 78 80 70 65 69 55 46 45 39 37 39 40 39 39 40 43 48 54 59 62 65 73 73 81 83 88 86 76 74 75 97 95 94 89 87 88
60 64 80 84 54 58 83 85 80 72 69 61 53 47 46 36 37 39 39 39 41 43 44 46 50 56 69 74 81 83 97 99 98 97 90 87 61 77 95 92 91 94 93 91

GFSCGP_850_rhum_030.txt.gz
RH
19 24 22 18 16 15 14 21 23 18 15 14 20 23 23 27 40 50 56 57 58 58 60 58 60 62 69 73 68 76 82 79 72 76 70 62 52 48 50 59 60 59 60 61
25 24 17 16 22 26 22 27 25 20 19 16 23 27 33 36 44 50 54 56 53 53 52 53 52 53 55 63 55 54 52 50 50 48 48 48 49 50 59 64 64 63 63 63
28 18 14 24 27 27 35 32 28 24 23 21 26 28 37 35 40 46 50 49 46 43 41 44 44 46 45 44 42 40 43 49 49 48 50 50 48 49 50 52 54 56 58 60
20 17 22 28 28 26 37 27 26 26 31 28 23 41 30 38 42 41 50 51 47 45 42 40 40 40 39 41 43 41 44 50 50 50 51 46 43 52 56 58 63 68 69 70
24 29 31 31 26 23 30 23 27 27 33 36 35 41 33 40 47 48 49 52 51 46 43 45 46 46 47 49 51 52 50 49 52 56 57 58 60 64 66 68 70 70 70 68
24 23 25 25 24 22 22 28 43 40 45 61 43 43 43 46 45 48 46 49 47 43 43 44 48 47 48 52 56 58 59 59 61 61 62 60 60 67 72 74 72 69 69 67
30 30 26 24 32 29 32 50 71 68 77 69 49 56 53 42 42 44 49 45 44 43 42 43 44 46 52 55 58 58 57 59 62 61 60 61 64 67 69 71 69 66 59 50
45 46 31 27 28 30 31 46 74 57 76 65 44 59 57 47 43 40 39 40 40 41 42 44 49 54 54 53 52 52 53 55 58 60 59 60 64 65 64 62 59 55 59 67
47 39 28 25 25 28 32 45 36 65 69 75 57 48 40 42 43 41 43 49 49 41 42 44 48 49 51 52 53 55 56 57 58 58 60 63 64 63 61 50 46 56 65 73
32 42 28 26 25 28 28 29 54 70 60 59 52 55 61 55 50 46 44 41 42 44 44 46 48 50 52 53 56 57 55 56 57 59 61 61 60 57 53 44 43 44 47 55
37 43 38 32 31 34 37 41 44 49 69 73 79 57 40 48 50 46 40 41 42 44 46 52 54 53 53 53 52 50 53 56 57 56 53 54 56 56 52 52 47 46 54 58
37 50 56 34 27 25 27 36 48 74 51 81 81 62 42 46 41 39 40 45 48 49 53 55 54 54 54 52 48 51 48 47 48 54 55 53 54 50 53 54 54 56 60 63
40 49 70 53 46 40 29 31 53 61 71 59 71 57 38 43 49 50 52 54 54 55 54 54 54 58 58 49 48 46 46 47 49 46 47 53 54 56 58 58 58 60 71 84
47 50 51 63 46 37 28 29 47 55 79 69 72 48 45 58 60 57 60 60 59 60 62 61 52 48 52 51 48 47 46 42 44 49 54 56 59 62 64 74 69 79 96 94
52 57 52 47 40 35 31 33 35 40 48 61 51 57 57 63 63 61 63 64 65 66 58 59 58 57 53 49 45 43 42 41 43 46 44 46 47 49 50 70 83 93 99 96
60 71 50 42 59 59 41 44 51 49 40 40 55 73 60 60 62 66 65 65 67 59 56 52 49 45 46 45 46 47 48 50 51 45 42 43 44 43 45 53 61 61 85 96
68 76 73 57 78 66 65 50 43 34 41 39 51 66 61 69 73 75 76 69 57 56 51 48 46 44 42 48 47 43 41 41 41 42 41 43 46 46 48 52 59 54 72 97
72 89 92 72 71 42 41 43 37 62 67 64 66 68 64 64 68 75 70 53 52 52 48 42 34 32 32 33 33 37 39 40 42 44 45 48 50 54 56 55 81 93 99 96
63 85 98 70 88 50 43 45 46 46 74 67 73 72 68 70 77 79 59 54 54 48 38 31 31 32 34 35 37 35 40 43 44 48 53 57 60 63 58 66 80 94 100 97
79 80 76 97 63 57 48 44 38 40 74 72 73 77 73 65 86 74 59 66 43 36 32 32 33 36 37 34 34 36 41 46 50 50 60 66 67 63 69 79 90 99 89 96
97 94 96 99 92 79 56 45 38 70 65 73 72 75 71 73 59 58 60 44 40 32 34 37 38 40 39 41 44 45 46 48 54 65 71 71 70 73 83 88 99 95 97 93
80 93 97 92 92 82 47 50 60 60 70 72 75 73 66 62 66 66 44 40 35 37 38 40 41 42 42 46 48 49 53 60 68 72 72 73 71 72 80 91 87 86 84 84
62 68 80 76 77 47 48 45 44 53 64 77 74 72 67 67 59 45 40 36 37 39 40 40 40 41 46 51 57 64 69 75 78 79 83 83 76 80 86 100 100 95 96 90
56 58 84 73 56 58 52 58 58 67 68 74 66 66 68 54 45 39 37 37 38 39 37 37 36 34 41 52 62 73 79 85 90 99 97 96 84 78 84 100 99 98 93 87
55 61 66 76 75 78 76 70 70 76 74 65 65 62 49 45 40 38 37 38 38 38 38 32 29 34 39 46 60 75 86 88 100 99 100 99 94 70 76 100 99 94 97 91
62 66 82 84 55 60 63 72 77 76 68 72 53 47 44 40 37 37 38 38 39 36 30 29 33 38 42 54 58 62 98 93 97 100 100 100 85 83 96 99 100 99 95 93

GFSCGP_850_rhum_033.txt.gz
RH
19 26 21 19 17 17 19 19 23 19 17 19 24 36 45 54 46 63 66 65 66 71 78 74 66 63 66 67 59 69 77 72 79 76 74 69 63 54 53 55 57 60 62 64
26 24 18 22 28 24 26 25 24 22 23 26 38 44 53 53 62 66 68 67 63 62 63 64 68 70 70 66 59 54 52 56 59 55 52 52 52 52 53 56 56 52 51 56
25 19 22 24 30 34 37 30 29 25 25 27 32 40 51 47 56 62 62 60 57 56 56 56 56 54 52 46 42 42 43 44 45 45 48 50 46 42 44 46 50 52 58 63
22 28 27 29 28 31 35 28 26 26 27 34 27 54 38 44 53 59 62 55 53 52 51 48 45 44 45 47 48 47 48 48 50 49 48 47 47 52 56 57 60 65 70 72
25 29 30 30 26 25 30 25 27 28 37 39 36 53 44 50 57 58 61 56 50 47 44 45 47 48 50 50 52 54 55 55 56 57 57 60 61 61 64 68 72 74 71 67
27 25 25 25 25 25 23 34 47 52 49 60 43 46 51 56 55 56 56 56 50 47 44 48 48 50 53 55 56 58 58 57 56 59 59 58 59 63 69 72 68 63 58 53
34 32 28 26 30 28 36 49 69 70 75 70 50 57 53 43 46 50 56 56 54 51 53 54 49 54 55 57 61 62 58 58 58 59 59 60 61 63 65 63 60 41 33 33
48 45 32 28 29 32 36 46 72 56 73 64 50 68 60 52 44 44 48 50 51 49 49 47 47 51 56 57 56 57 57 56 57 58 58 60 62 63 61 53 54 46 46 38
45 38 29 25 26 29 34 45 39 72 73 74 64 52 48 47 54 50 47 46 48 54 49 49 52 57 54 53 53 53 54 55 56 58 60 61 59 55 55 55 47 53 53 50
40 42 29 26 26 28 29 34 56 71 61 58 58 64 69 57 59 54 50 52 53 49 53 52 52 52 52 52 53 53 51 51 53 56 54 51 52 51 52 54 54 57 58 58
38 40 37 34 32 34 37 42 51 56 72 75 78 63 42 54 53 58 51 51 51 53 52 52 53 54 54 53 52 50 50 50 48 48 49 47 51 54 56 58 59 62 64 66
40 51 58 35 34 32 30 38 47 65 48 84 80 62 42 52 49 45 51 50 51 53 57 57 56 56 57 55 50 47 46 46 47 52 50 55 57 58 61 61 63 58 62 80
39 50 65 50 46 38 32 39 60 62 70 62 72 58 42 53 57 54 54 58 58 57 58 61 57 48 46 49 49 48 47 46 46 44 44 46 53 49 49 50 43 34 37 66
45 58 49 58 44 42 31 32 50 53 78 68 68 45 63 66 68 64 61 60 63 64 61 55 48 49 53 49 47 46 44 43 45 47 48 45 42 41 41 42 40 43 50 66
50 55 52 48 48 37 32 32 48 51 51 58 51 58 53 68 71 68 66 67 65 62 55 52 50 48 49 49 47 46 46 49 47 40 36 36 37 39 44 48 54 57 54 57
64 70 47 45 64 62 43 38 43 47 45 56 64 75 64 62 66 71 70 69 65 57 48 45 49 48 42 44 48 46 38 34 34 33 38 42 45 50 55 56 58 50 77 100
67 74 62 46 75 54 51 43 50 44 42 49 78 65 66 76 71 72 71 67 54 50 50 57 48 39 39 34 32 33 34 33 35 42 45 51 55 57 59 64 55 57 69 99
75 87 84 64 68 44 35 44 45 43 63 61 68 70 65 66 63 64 64 53 48 52 61 41 33 32 33 35 36 32 32 38 41 48 52 53 55 63 66 58 59 66 80 100
67 86 97 73 74 45 33 52 62 50 54 69 72 71 64 67 75 74 64 54 57 62 40 32 33 35 38 38 38 40 41 43 48 50 52 61 68 66 63 64 64 73 100 100
76 72 71 98 57 49 38 48 40 41 72 69 66 73 71 84 98 81 64 62 64 39 33 35 37 38 40 41 42 43 44 46 47 56 66 74 71 70 69 73 80 89 96 93
99 96 88 100 81 70 50 46 40 64 55 71 63 66 73 83 66 57 63 58 42 35 37 38 40 41 42 41 38 34 39 53 63 72 80 80 83 78 70 77 86 90 98 93
89 96 99 94 92 74 46 49 60 56 47 58 68 66 70 65 63 67 47 42 36 38 40 40 39 34 33 27 25 33 52 68 79 83 90 98 93 84 74 91 99 97 90 95
70 65 80 76 76 49 48 45 40 40 41 63 67 71 69 68 68 53 44 38 38 39 39 37 33 29 25 24 32 43 54 67 74 85 100 100 100 92 83 99 100 100 97 95
65 56 79 68 51 55 43 45 54 51 54 59 69 72 70 67 67 46 40 39 39 39 37 34 28 22 24 30 39 55 60 66 96 94 100 99 100 94 79 100 100 100 98 95
63 69 69 79 66 75 62 53 53 60 69 72 71 68 70 72 46 41 39 39 39 37 36 30 25 27 31 34 43 52 56 71 100 100 100 100 98 93 81 100 100 100 100 97
63 70 81 78 46 55 50 44 56 67 73 71 68 73 68 47 43 39 38 38 36 37 29 28 28 30 33 36 40 49 63 98 100 100 99 99 97 98 97 95 100 100 100 99

GFSCGP_850_rhum_036.txt.gz
RH
21 25 23 19 18 17 18 19 20 20 19 35 57 63 67 64 63 69 69 68 66 61 65 63 67 63 70 81 79 84 86 78 99 79 70 69 68 54 51 49 49 51 53 49
27 26 20 28 26 29 25 26 25 24 28 38 52 59 64 66 73 75 74 76 79 84 86 88 91 94 88 83 71 59 64 61 58 53 50 48 45 41 41 44 45 48 52 56
27 21 24 29 34 34 36 30 29 27 29 34 38 48 60 57 68 70 69 69 69 68 67 63 61 56 50 42 40 40 40 38 36 34 33 33 38 46 52 55 55 57 61 67
28 29 28 29 29 33 33 29 27 29 28 37 30 45 48 58 66 68 69 64 60 56 52 51 48 43 42 43 44 44 44 44 46 48 51 54 54 55 57 59 64 68 73 63
28 29 30 31 28 26 30 32 33 33 42 37 38 51 54 64 71 71 69 64 55 51 47 40 44 47 48 48 47 49 52 54 57 60 61 62 59 60 64 69 74 73 55 38
31 27 27 27 29 27 29 41 50 55 53 62 45 46 54 68 64 66 63 62 55 52 50 51 50 47 51 53 56 58 60 61 60 61 60 58 58 62 67 69 60 52 45 46
37 34 31 28 31 30 41 50 70 71 75 70 50 55 53 46 53 58 61 60 55 52 53 54 48 52 56 60 64 62 62 61 59 58 58 59 63 64 62 58 55 49 51 52
48 46 32 28 30 35 42 44 72 58 79 67 52 64 57 55 42 47 50 50 53 53 53 53 57 61 68 66 63 58 57 57 56 54 58 62 59 54 53 52 53 56 58 60
45 39 30 27 30 30 39 47 42 75 73 76 66 57 54 58 61 55 54 53 51 54 58 63 63 67 62 57 56 56 54 53 53 58 57 51 51 49 53 53 57 59 62 66
42 45 32 27 28 31 29 41 56 71 57 56 61 64 73 63 65 61 57 53 53 56 56 59 61 58 56 55 54 52 51 53 56 50 49 48 46 53 56 58 60 62 64 58
39 41 38 34 34 37 40 45 56 60 73 73 79 67 54 60 59 60 56 53 56 56 57 56 55 55 53 53 53 52 47 47 47 49 50 46 49 56 57 60 58 58 52 49
42 51 56 36 32 37 33 40 45 58 43 84 81 64 46 60 54 54 53 55 57 59 58 57 56 56 57 53 46 44 47 48 48 48 53 50 53 50 47 43 43 41 43 46
42 50 63 47 39 37 34 48 58 59 71 67 74 55 56 60 60 53 58 62 63 62 61 61 57 48 46 48 47 51 48 46 46 47 49 45 37 36 38 42 47 49 52 53
41 57 50 56 37 44 34 42 52 52 77 67 69 44 52 61 68 68 64 63 62 63 62 56 49 47 50 50 56 47 46 45 47 42 32 26 31 39 44 47 47 54 59 50
47 54 52 51 54 42 33 35 54 52 50 50 44 57 45 65 72 67 63 66 67 63 57 52 49 50 48 50 47 47 48 40 31 28 25 40 44 49 49 47 56 60 49 49
62 70 47 51 64 63 49 41 44 52 46 58 53 58 60 61 62 69 68 68 64 60 51 46 48 49 43 42 44 35 33 27 30 34 40 45 50 50 54 62 58 54 55 66
64 73 65 61 71 53 50 48 49 48 53 51 64 48 75 77 75 72 70 65 61 52 46 51 52 42 38 32 34 36 36 36 37 38 46 51 53 59 66 62 59 59 57 62
72 74 76 60 64 38 29 41 45 49 47 54 56 63 69 67 70 65 62 60 55 49 52 52 42 34 33 36 38 40 40 39 38 48 50 55 62 69 69 63 64 64 70 100
66 79 92 66 69 41 26 51 59 54 48 67 63 71 70 69 70 72 67 62 49 50 55 44 33 34 37 40 41 40 35 31 34 46 55 62 71 72 71 73 71 74 91 100
71 70 72 93 56 45 36 45 44 41 70 56 61 73 78 77 90 75 59 63 55 61 46 33 35 38 41 41 36 28 24 29 40 50 57 62 69 81 85 78 74 86 97 100
98 98 82 100 76 65 46 45 42 61 54 60 56 60 71 82 64 57 57 65 63 48 35 36 40 42 38 30 25 24 30 37 40 44 51 59 93 98 94 83 92 98 96 99
91 97 98 95 90 70 43 50 58 53 40 35 49 52 57 65 65 62 66 67 48 40 38 40 41 37 30 24 24 28 32 35 38 44 52 73 98 100 99 93 99 98 97 98
70 67 78 74 75 47 41 52 42 43 43 39 41 48 60 66 67 66 55 63 58 39 40 40 37 30 24 25 25 28 34 37 43 52 79 100 99 98 99 98 100 99 96 98
69 58 76 66 45 58 45 39 45 48 47 47 48 57 67 71 70 62 70 48 40 40 41 37 31 25 26 27 29 34 38 40 47 69 100 99 100 99 97 87 98 99 100 98
66 67 68 76 63 56 44 43 40 42 53 57 63 69 74 71 68 65 60 42 40 40 34 30 25 28 31 32 34 37 39 41 57 93 100 99 100 100 97 91 89 99 100 98
64 69 80 75 38 48 43 42 43 51 57 68 70 77 75 72 83 76 59 44 36 31 28 26 31 34 34 36 38 43 47 57 82 99 99 99 100 99 97 97 96 98 98 98

GFSCGP_850_rhum_039.txt.gz
RH
21 22 21 18 17 16 18 19 20 21 24 42 54 57 59 67 68 70 71 64 61 61 59 58 56 53 60 77 74 70 86 95 77 73 80 66 60 49 44 45 47 49 52 54
24 25 21 29 24 24 23 24 27 28 30 39 48 57 61 64 71 72 72 75 71 73 81 78 80 87 84 75 81 89 77 43 45 53 53 49 44 43 45 50 54 54 56 61
28 23 25 30 31 30 33 31 30 27 32 36 37 42 56 62 71 76 78 80 82 79 80 71 75 62 48 46 44 40 36 37 39 42 38 39 43 48 51 54 56 60 67 73
30 29 26 28 31 30 35 30 29 27 26 29 32 26 46 61 69 70 74 77 77 71 69 59 47 43 43 43 43 42 45 46 47 49 52 56 58 58 57 59 63 72 68 52
31 30 30 32 30 27 36 34 33 33 36 33 34 31 42 63 73 69 69 71 72 68 62 48 46 47 47 46 47 49 51 53 55 58 60 61 59 61 67 70 74 54 49 43
33 29 29 29 34 31 40 39 43 46 44 46 42 36 35 60 58 65 65 68 64 59 53 49 50 49 49 49 51 54 55 58 61 60 60 60 61 64 64 62 57 54 51 52
36 35 31 29 33 33 37 41 50 52 58 51 48 51 42 41 47 56 60 63 58 53 52 52 52 50 50 52 59 60 61 63 60 58 57 60 61 58 52 50 50 52 56 58
41 36 31 30 31 35 42 40 60 54 63 55 48 53 41 46 46 53 56 56 53 54 51 52 56 56 56 62 68 66 65 61 56 53 58 56 48 46 49 53 54 59 61 62
45 40 31 30 33 32 42 41 40 62 72 61 46 46 43 53 52 56 56 61 58 53 57 60 63 62 63 67 68 64 59 56 55 56 49 48 48 50 56 58 59 60 58 62
42 45 33 30 30 35 34 40 48 53 55 48 42 51 43 56 54 54 54 58 59 56 60 62 64 66 68 63 60 56 53 53 50 47 49 51 53 52 53 58 58 58 51 45
39 43 40 36 32 38 40 45 52 49 56 46 53 34 47 48 50 53 52 57 56 56 56 60 67 67 62 57 54 51 46 46 48 51 51 55 52 49 50 44 40 39 41 42
42 49 52 38 34 36 35 40 43 45 41 66 60 41 41 49 51 55 55 58 56 57 62 63 61 57 56 55 46 43 50 57 55 50 52 48 47 33 30 34 34 42 42 51
45 50 54 41 34 36 37 45 47 51 59 58 72 36 44 56 57 56 56 59 60 62 62 60 59 56 48 43 40 51 51 54 46 46 47 37 23 24 34 44 47 45 46 46
39 51 48 49 38 42 40 52 47 46 59 51 51 36 34 50 57 63 65 62 63 63 62 60 53 49 46 42 50 57 56 47 46 38 26 20 29 40 49 51 48 47 45 46
47 48 49 51 52 44 36 39 52 46 45 47 38 42 33 36 50 62 70 69 67 66 63 58 51 48 46 48 60 51 46 35 32 26 24 37 44 49 52 52 50 49 48 51
58 60 50 56 59 57 50 42 42 52 48 44 48 45 36 51 62 69 71 73 73 66 60 55 50 47 47 46 44 35 34 36 32 32 36 44 51 52 52 54 57 56 60 56
59 68 62 58 60 45 53 44 42 43 45 42 47 35 60 64 65 66 71 73 66 61 56 49 47 48 41 37 33 35 38 36 34 34 44 51 50 50 56 60 63 66 66 72
65 62 63 57 60 39 29 42 39 42 42 43 47 52 57 59 65 64 64 62 63 59 52 51 51 42 34 33 36 39 38 31 30 34 42 44 47 52 57 63 72 71 69 90
58 68 77 65 50 37 23 39 49 53 39 45 44 53 69 73 70 71 65 64 59 54 50 52 45 34 34 37 40 37 29 28 28 31 37 42 48 50 61 72 79 74 80 87
63 65 68 74 48 44 32 36 47 43 57 45 56 65 79 72 75 54 60 62 62 51 54 52 35 35 38 41 36 26 25 26 27 33 38 42 45 52 68 83 85 78 92 99
97 94 81 80 68 56 41 39 44 47 44 43 51 55 76 66 61 52 54 64 63 58 55 47 44 38 41 36 26 22 24 26 32 39 41 45 52 68 88 93 92 92 94 96
75 90 93 90 79 66 42 50 57 49 38 37 41 39 44 53 60 58 60 70 68 51 63 53 40 40 37 28 22 23 26 33 37 39 42 50 68 90 100 100 96 95 96 96
65 64 70 64 63 44 38 48 40 45 42 42 43 45 49 56 65 66 69 70 50 90 52 51 49 38 27 21 26 29 32 36 36 36 42 60 81 96 98 99 95 94 94 92
66 62 66 64 45 55 44 39 36 38 43 50 52 50 53 63 70 69 54 65 73 50 65 51 37 25 22 27 31 33 36 38 37 39 53 78 97 97 99 97 95 94 97 97
62 64 64 67 58 46 38 40 42 43 47 53 58 63 70 75 75 64 74 74 80 84 52 35 25 23 28 31 33 36 39 40 43 52 64 82 90 92 94 95 96 91 84 95
69 64 75 73 47 47 46 55 58 58 59 68 76 80 83 79 64 66 92 95 77 49 32 24 24 28 31 33 36 40 42 46 55 66 77 87 87 87 87 91 94 90 96 94

GFSCGP_850_rhum_042.txt.gz
RH
20 17 14 11 11 11 12 13 11 13 17 16 17 22 26 42 41 41 44 48 51 56 71 71 54 53 59 60 68 73 72 81 86 78 73 72 66 52 45 47 50 52 55 58
17 17 19 18 15 14 13 15 17 20 19 20 25 28 30 36 41 43 44 48 53 65 76 86 86 97 98 99 99 85 98 72 60 63 63 68 51 48 50 52 55 57 61 67
16 21 22 19 18 17 20 18 21 18 23 24 23 28 35 41 48 54 55 52 58 63 77 90 95 98 99 98 97 89 73 40 51 60 54 50 47 50 52 54 58 60 69 66
21 22 21 20 22 20 21 22 20 21 20 19 22 18 29 38 39 46 54 58 61 67 71 72 67 75 77 79 74 62 61 57 43 47 63 65 59 58 65 64 68 75 71 61
24 21 21 20 23 22 25 22 21 20 20 21 22 21 24 37 41 41 50 56 63 66 60 52 49 53 53 51 61 53 49 65 50 53 60 68 71 68 64 71 74 66 63 52
23 24 22 23 25 23 27 26 26 26 25 29 20 25 13 22 27 39 48 58 63 64 53 47 50 53 57 46 48 63 68 54 57 66 63 67 66 72 69 69 63 58 59 60
24 25 23 25 26 27 25 24 24 32 34 30 34 32 18 26 32 35 47 56 59 56 51 49 54 55 59 69 74 67 72 75 69 65 63 61 71 68 60 58 51 56 53 58
23 31 23 24 25 22 25 23 26 28 32 29 36 31 28 32 35 35 46 51 54 50 48 49 52 55 63 69 71 71 72 72 63 61 60 56 60 58 56 60 62 65 69 76
27 28 25 26 26 25 31 28 30 42 58 46 24 27 27 35 36 36 44 48 47 47 50 51 56 61 65 70 77 77 75 71 55 54 49 44 44 44 58 53 62 79 84 78
29 33 26 26 25 29 28 28 34 34 43 29 18 24 18 34 37 37 42 44 44 46 50 54 59 70 72 72 75 69 72 60 50 46 46 46 50 52 47 49 71 69 58 53
25 26 33 28 26 24 34 32 32 28 38 27 25 15 27 30 32 35 38 42 41 46 53 58 65 72 71 68 68 60 52 47 51 48 50 53 58 48 52 56 53 54 57 58
32 31 40 30 27 27 26 27 26 27 30 44 43 20 24 31 35 35 35 40 42 48 55 62 65 68 64 62 62 60 50 56 53 52 58 58 46 46 50 49 53 61 64 65
31 34 41 36 30 31 29 29 27 31 36 36 55 18 24 30 36 38 38 41 47 56 59 60 61 60 58 59 60 53 53 63 56 55 49 48 49 48 49 57 64 69 71 72
30 34 32 34 26 27 33 31 29 25 36 23 27 14 20 25 29 33 39 42 53 59 57 58 57 57 56 55 56 53 63 51 49 43 40 44 47 52 59 66 71 74 79 81
35 36 34 34 32 31 28 27 32 30 25 34 17 16 11 15 20 25 36 46 52 57 57 55 56 57 56 56 58 55 51 47 38 40 39 42 55 56 69 72 77 80 84 91
41 43 43 43 42 38 36 28 27 30 27 27 23 22 17 21 30 33 44 51 54 55 56 56 57 55 54 56 53 48 44 40 36 38 40 51 66 71 69 76 82 83 90 92
44 50 47 40 41 39 61 36 28 24 26 28 30 22 22 28 32 35 43 50 53 55 57 58 56 54 52 50 44 40 42 37 32 37 48 58 49 65 71 75 80 87 92 100
51 47 56 54 56 71 18 25 25 26 23 22 25 24 26 28 37 42 43 49 55 58 59 59 56 52 45 44 39 46 40 35 25 42 52 62 67 71 73 83 87 92 97 93
38 45 70 80 37 25 15 22 24 30 21 24 24 23 34 49 52 47 54 54 58 60 60 58 54 47 44 49 48 39 37 32 36 50 56 64 72 75 79 86 90 96 100 100
44 46 50 66 86 86 26 33 40 35 33 31 33 34 41 51 49 21 53 62 63 63 60 55 50 40 43 42 56 38 43 44 49 58 55 68 76 81 86 89 92 100 99 98
81 84 88 72 83 45 26 27 42 39 31 36 39 37 48 44 39 57 60 68 66 63 55 49 42 53 54 67 39 31 42 47 56 32 37 75 79 84 91 91 92 100 100 100
57 76 91 77 95 77 32 42 47 39 41 40 46 48 53 54 65 61 70 70 62 50 48 50 66 65 63 40 29 39 46 54 31 33 55 72 84 91 90 94 95 100 100 100
52 46 47 45 39 37 38 38 47 50 48 47 51 52 59 64 67 71 70 61 52 51 64 78 67 49 40 26 20 26 53 30 32 35 46 82 92 90 91 99 100 100 99 95
44 47 50 49 30 34 39 42 44 48 50 54 58 61 62 60 70 67 59 56 64 76 66 94 77 45 28 20 26 29 31 32 38 42 76 91 91 89 91 99 100 99 99 99
43 49 46 47 36 34 42 53 65 65 65 69 75 76 77 73 69 59 59 65 77 89 88 64 46 27 26 27 29 33 37 40 44 67 78 92 94 96 97 100 100 99 100 100
48 48 55 51 53 56 51 70 83 78 79 83 79 76 75 70 62 67 85 94 95 82 63 51 44 28 28 32 35 40 41 45 49 54 87 95 99 100 100 100 99 97 96 92

GFSCGP_850_rhum_045.txt.gz
RH
18 20 18 16 12 11 11 9 10 8 8 9 9 13 18 22 22 24 29 31 32 38 44 59 60 61 55 73 92 100 93 70 79 86 64 79 81 66 56 60 48 53 66 68
17 22 15 10 9 10 10 13 11 11 10 14 11 14 16 22 23 22 26 32 37 41 53 61 69 74 78 96 100 100 95 97 98 88 83 76 68 64 66 73 72 72 58 63
30 19 16 12 11 12 12 13 23 14 14 12 14 16 22 21 22 26 27 29 34 42 52 67 74 81 94 99 98 100 95 83 74 64 62 64 65 68 66 71 72 76 63 64
25 24 15 12 13 13 17 16 14 15 18 18 15 18 19 23 27 32 35 35 37 44 54 66 71 92 98 96 87 74 66 61 60 60 59 60 55 59 63 64 66 73 74 70
18 16 14 13 17 16 23 17 16 14 14 16 18 15 23 22 25 30 33 39 42 50 56 60 64 68 67 69 62 55 56 57 64 65 61 65 61 64 65 67 75 74 71 65
41 18 16 18 17 16 19 19 18 16 16 25 16 17 14 20 19 23 30 38 45 50 51 47 50 52 56 63 60 60 59 61 68 71 72 68 72 65 62 66 65 58 52 50
18 17 19 18 19 19 18 20 33 31 25 28 21 21 14 14 21 18 30 39 47 49 45 41 42 43 52 60 65 65 61 64 71 76 77 75 72 67 61 59 53 50 49 50
22 28 18 17 19 20 19 18 24 27 25 21 22 17 22 21 26 25 32 40 48 49 43 40 42 42 51 62 67 65 63 66 74 76 72 71 65 55 56 54 59 60 59 62
25 22 19 19 18 17 21 21 21 27 47 36 16 15 25 24 26 27 33 40 46 46 42 40 43 45 50 60 64 67 63 66 70 71 71 66 65 60 58 61 64 65 70 62
18 24 20 21 21 21 21 20 26 24 36 27 13 13 17 23 24 26 30 38 43 42 40 40 42 48 53 60 66 72 68 67 68 70 66 63 59 60 63 67 68 64 56 52
15 19 26 22 21 17 25 24 21 21 25 31 22 16 14 17 20 25 28 35 39 40 40 41 44 51 58 63 69 75 68 68 64 63 53 52 62 62 65 59 51 49 54 55
19 20 26 25 19 19 20 20 21 30 25 28 38 21 15 18 18 22 25 32 35 38 39 42 46 54 63 64 65 68 66 60 62 62 68 66 62 56 52 47 47 54 59 62
24 22 28 28 25 24 24 20 19 20 27 29 46 24 16 19 20 21 22 26 33 35 38 44 50 57 60 60 60 62 62 60 64 75 66 52 50 49 45 45 55 59 62 65
30 20 24 31 22 21 29 23 20 23 36 27 20 16 13 17 17 17 21 22 28 34 39 46 51 54 55 55 58 59 61 65 68 58 42 40 44 45 49 55 62 62 67 72
29 32 24 22 23 24 22 21 20 25 24 30 20 13 8 8 10 14 17 22 25 36 45 47 49 51 52 54 55 56 65 59 58 42 39 38 41 55 59 64 66 70 74 76
30 34 34 38 26 29 28 23 21 19 20 16 14 15 11 14 14 17 18 23 27 36 43 46 48 49 52 51 54 59 56 51 42 42 42 39 46 55 59 62 68 68 73 76
38 39 42 41 32 30 54 32 22 18 17 19 25 17 16 18 18 19 21 27 30 34 42 46 48 50 52 53 54 49 49 45 47 48 40 41 54 56 57 60 63 71 77 78
43 44 49 50 60 74 17 16 16 21 18 14 15 15 14 17 22 26 27 29 33 38 44 48 50 52 51 50 45 44 46 53 52 42 39 44 53 57 60 61 67 74 75 82
30 41 56 78 35 24 19 14 19 21 20 14 19 15 16 27 34 28 33 34 36 43 47 51 53 52 49 44 42 54 51 46 42 40 43 46 52 59 61 65 70 76 79 96
32 36 43 54 82 87 29 24 27 24 26 18 19 22 23 31 35 27 39 40 45 50 52 53 52 50 44 46 50 55 55 44 43 41 50 53 57 62 64 71 76 78 82 94
74 76 78 64 76 47 23 23 30 35 37 26 27 25 28 27 42 48 44 51 52 53 52 52 47 45 44 56 76 67 43 36 42 54 58 61 61 63 68 76 78 77 84 89
58 73 90 71 93 79 23 29 36 39 28 34 32 33 42 42 53 57 52 55 56 54 50 46 44 49 71 71 55 38 33 45 52 60 62 62 64 70 75 80 80 83 92 92
44 38 44 40 39 31 25 26 34 35 36 37 40 42 42 49 50 56 58 58 53 46 46 53 63 89 79 73 34 45 50 55 49 53 65 69 75 78 78 76 76 88 95 94
32 36 41 37 24 24 29 35 40 46 50 50 52 53 53 53 53 60 57 50 48 56 74 96 97 85 60 52 53 29 31 32 53 70 74 78 81 81 85 82 80 89 92 94
34 36 33 36 26 30 42 54 64 64 61 61 62 67 68 64 63 57 52 56 78 99 97 82 63 63 74 47 29 43 65 60 68 73 75 82 87 88 86 84 87 90 88 94
34 34 50 48 52 55 50 73 72 68 70 70 66 62 61 60 56 65 96 100 98 89 82 87 70 51 41 55 61 62 64 68 67 70 81 86 90 91 89 88 90 92 91 91

GFSCGP_850_rhum_048.txt.gz
RH
20 23 22 18 16 13 14 14 16 12 11 11 11 15 13 16 20 25 25 24 25 25 32 40 43 42 45 68 83 85 93 93 80 78 83 74 63 64 64 52 40 48 66 56
21 30 21 15 14 14 12 16 16 9 8 9 10 11 14 14 18 22 26 28 29 33 39 52 53 53 51 67 82 84 98 89 85 96 89 72 73 62 58 63 54 68 65 65
26 41 35 21 18 13 12 23 28 22 16 9 12 12 16 16 16 18 22 27 30 34 44 53 60 66 64 81 92 92 96 88 82 83 77 72 64 66 67 70 67 74 65 68
39 29 32 24 13 12 28 26 19 24 35 18 22 32 28 18 20 19 20 24 29 34 43 53 63 74 82 86 90 89 84 82 78 66 62 64 64 58 62 62 67 70 71 69
41 32 28 21 16 16 30 28 25 14 16 20 29 35 33 27 23 22 26 26 27 32 40 53 61 68 78 90 76 87 84 69 62 57 58 60 59 58 61 65 66 70 71 70
30 30 29 23 16 14 22 24 17 17 24 35 39 35 33 31 32 25 25 30 32 37 47 52 61 68 83 80 81 67 60 56 61 62 60 63 63 64 64 65 69 68 61 55
24 17 15 16 16 15 16 19 37 79 73 41 14 21 18 32 22 28 26 33 37 46 49 52 58 62 66 64 57 56 56 60 67 69 71 72 73 70 64 62 61 54 51 51
32 33 19 15 15 45 35 23 66 58 62 39 29 21 25 21 19 21 28 32 42 46 47 45 51 51 58 61 62 61 59 61 68 73 77 76 73 63 61 56 56 59 59 60
25 32 32 18 13 25 30 24 20 24 49 58 21 11 24 21 22 24 28 34 43 45 44 40 42 43 52 60 65 63 62 63 66 73 73 73 66 57 56 55 59 61 65 68
34 61 46 24 17 17 18 16 28 25 39 38 18 16 34 24 23 23 28 35 43 45 44 40 40 42 48 56 64 67 63 66 66 71 73 69 67 62 62 65 63 69 65 55
30 47 31 20 20 15 24 25 18 16 28 47 50 25 16 17 19 22 23 33 40 44 43 41 40 43 46 54 59 67 67 66 69 70 70 62 62 64 72 70 60 53 51 54
17 20 32 24 16 15 18 20 19 54 34 38 53 38 15 17 19 19 21 28 36 41 41 40 40 42 49 55 62 72 72 66 68 64 66 58 69 62 63 55 50 48 55 60
21 27 39 27 20 20 23 17 16 20 33 39 70 35 16 16 16 17 17 22 30 36 38 38 40 43 53 59 63 67 72 68 64 64 67 67 60 54 60 50 45 53 60 63
29 25 25 37 22 20 26 23 17 22 60 43 39 20 14 16 18 16 19 20 23 30 33 36 39 45 55 59 61 62 66 61 63 64 60 52 54 46 48 47 52 60 63 65
27 28 20 17 17 18 23 22 19 20 23 37 32 20 14 11 14 13 15 17 19 21 28 32 39 47 53 56 56 59 62 63 62 58 55 42 40 42 50 56 62 66 67 70
29 37 35 36 27 23 28 22 20 19 19 17 19 19 13 14 17 16 17 16 17 21 26 36 41 46 50 52 55 57 60 63 60 48 44 46 66 47 55 60 62 59 65 69
34 47 53 57 35 35 52 33 24 20 18 19 26 21 15 15 15 17 19 19 23 24 26 36 40 44 48 51 52 55 58 57 45 48 61 61 44 54 56 47 62 61 65 72
39 48 68 72 62 68 25 15 14 18 15 13 13 15 14 23 23 22 23 25 27 30 32 37 42 46 49 52 53 54 51 46 53 65 52 40 44 49 47 58 60 62 68 74
31 54 74 94 54 32 23 16 19 20 22 19 19 18 17 24 26 31 29 30 30 31 38 43 47 50 51 51 49 46 46 57 56 45 43 46 43 45 55 60 62 66 73 76
28 43 70 69 80 86 32 22 21 19 35 20 19 21 22 23 48 45 38 37 35 39 46 49 52 52 50 45 46 49 52 54 55 48 45 54 49 57 66 62 64 71 77 77
77 87 90 76 87 62 24 23 25 41 53 30 29 27 31 34 50 51 46 46 46 48 50 51 50 47 44 50 59 66 69 56 45 58 48 32 50 63 62 63 68 76 78 82
76 85 96 81 98 90 22 25 40 44 30 32 33 34 37 42 45 52 52 52 53 51 47 47 44 50 66 64 60 52 53 51 63 56 39 50 54 63 69 74 78 78 79 84
51 46 62 59 64 31 23 28 32 34 38 42 44 43 43 45 45 48 54 55 50 44 48 57 64 76 73 79 66 58 74 78 58 53 31 36 52 69 78 80 79 78 79 81
31 33 49 43 24 25 28 41 52 52 54 52 53 61 60 58 55 56 55 46 50 68 86 84 81 82 76 71 85 80 58 56 39 38 38 42 64 74 76 77 84 80 82 86
37 34 34 36 26 36 49 66 67 63 65 64 62 60 61 60 58 50 52 66 86 88 86 85 91 95 84 68 65 64 63 60 48 62 66 56 63 71 77 82 82 84 85 91
34 37 62 62 55 55 67 64 63 64 64 62 60 67 63 61 63 67 80 86 86 89 95 92 75 68 62 58 58 59 59 60 64 68 61 55 63 63 68 85 88 78 75 78